Vorticity
7 7 8 10 11 11 11 13 15 10 12 5 18 8 9 7 8 31 26 16 16 -4
8 9 11 12 12 11 12 14 16 14 14 18 6 12 9 27 29 15 22 25 31 27
6 9 13 13 10 10 12 15 16 17 17 17 18 27 5 3 11 8 18 18 16 16
8 12 13 11 10 10 11 14 13 15 15 15 20 18 20 21 30 33 31 27 23 24
9 13 13 12 10 10 11 12 11 16 4 2 2 3 4 4 4 5 11 19 22 25
10 13 13 11 10 11 11 12 17 21 13 5 4 9 10 10 8 7 8 5 6 5
12 15 13 13 12 12 13 15 10 14 4 9 9 7 5 7 7 7 7 6 6 7
13 14 12 12 13 14 11 14 2 7 11 11 11 12 12 12 12 12 10 10 11 10
13 12 12 13 15 12 10 4 3 11 12 12 12 11 12 11 12 10 9 9 9 9
13 13 15 12 15 6 9 10 12 12 12 12 12 11 11 11 11 10 11 11 11 10
14 12 18 5 7 8 9 11 12 11 11 11 11 10 9 10 10 10 10 10 10 10
14 6 7 5 11 9 11 12 11 10 10 10 9 8 8 8 8 8 8 9 9 9
4 6 9 9 5 9 11 11 11 11 10 10 9 8 7 8 9 9 9 9 9 9
7 9 8 9 10 9 11 11 11 10 9 8 7 7 8 9 9 9 10 10 10 9
Height
3065 3062 3059 3057 3054 3051 3046 3042 3039 3036 3033 3030 3027 3026 3024 3021 3019 3016 3015 3015 3017 3018
3060 3057 3054 3051 3048 3044 3040 3036 3032 3029 3026 3023 3021 3018 3017 3012 3008 3006 3005 3004 3005 3006
3055 3052 3048 3046 3043 3038 3034 3031 3027 3024 3021 3018 3015 3012 3010 3006 3001 2999 2998 2996 2996 2996
3051 3047 3044 3040 3038 3034 3029 3026 3023 3021 3018 3016 3013 3010 3006 3003 2999 2997 2995 2993 2991 2990
3045 3042 3039 3036 3033 3029 3026 3023 3021 3019 3016 3014 3012 3010 3004 3003 2999 2997 2993 2990 2987 2986
3041 3037 3034 3032 3028 3026 3023 3020 3018 3016 3014 3012 3010 3008 3003 3001 2999 2997 2995 2990 2989 2985
3036 3032 3029 3028 3025 3023 3020 3018 3016 3014 3013 3010 3008 3006 3003 3000 2997 2995 2991 2988 2984 2985
3031 3028 3026 3024 3022 3020 3018 3016 3015 3013 3011 3008 3006 3004 3002 2999 2996 2993 2989 2985 2985 2983
3027 3024 3023 3021 3019 3018 3016 3015 3013 3011 3009 3006 3004 3002 3000 2998 2995 2992 2989 2985 2982 2980
3023 3020 3019 3019 3017 3015 3014 3012 3011 3009 3007 3005 3003 3001 2998 2996 2993 2990 2986 2983 2981 2979
3019 3018 3017 3016 3015 3013 3011 3010 3008 3007 3005 3003 3001 2998 2996 2993 2991 2988 2985 2983 2981 2979
3017 3016 3015 3014 3013 3011 3010 3008 3007 3005 3004 3002 2999 2996 2994 2991 2989 2987 2985 2982 2980 2978
3014 3013 3013 3012 3010 3009 3008 3007 3006 3004 3002 3000 2998 2995 2993 2990 2988 2986 2984 2981 2979 2976
3010 3010 3010 3009 3008 3007 3006 3006 3004 3002 3000 2999 2996 2993 2991 2988 2986 2984 2981 2979 2976 2973